DECAYED

STARLINK-2192, 47769 (Decayed)

Orbit data source: Space-Track

STARLINK-2192, 47769 was a payload satellite owned by SpaceX/Seattle (US) in LEO that was launched on Thu, 04 Mar 2021 UTC via an FALCON 9 launch vehicle from the Air Force Eastern Test Range (AFETR). Payload-class satellites include a variety of spacecraft equipped with specific instruments for various scientific and technological missions. These include communications satellites like Starlink; space stations such as the ISS; scientific satellites like the Hubble; Earth observation satellites from companies like Planet Labs, Umbra, and HawkEye 360; GPS; miniature CubeSats for education and research; and military/defense satellites.

Not visible in the next 10 days
Identifier
47769, 2021-017AZ
Orbit
Decayed
Country
Flag of USUS
Related business
Manufacturer
SpaceX/Seattle
Mission
Decayed Commercial Communications
Bus & Motor
STARLINK, Unknown motor
Mass
260 kg wet, ~248 kg dry
Launch date (UTC)
2021-03-04 (5 years ago)
Launch vehicle
FALCON 9
Launch site
Air Force Eastern Test Range (AFETR)
Object type
Payload
Rocket body
Debris
Shape & HBR
Box + 1 Pan, 10.1 m
Radar Cross Section
13.562 m², Large (>1 m²)

Expand to show TLE details & history
Last TLE update: 2 years ago

TLE from 2 years ago
0 STARLINK-2192
1 47769U 21017AZ  25018.61991578  .17178965  12508-4  49880-3 0  9992
2 47769  53.0196 222.4537 0005879 273.6950 197.3459 16.44978566215265
Epoch: 2025-01-18T14:52Z
TLE epoch observation values (Epoch: 2025-01-18T14:52:40.723Z)
Latitude
48.37107°
Longitude
3.62277°
Altitude
161.646 km
Speed
7.813 km/s
True Right ascension
23h 00m 14s
True Declination
48° 11' 05"
Sunlit
Object was in daylight at epoch
Visualization orbit readout
Latitude
Unknown
Longitude
Unknown
Altitude
Unknown
Speed
Unknown
Apparent Right ascension
Unknown
Apparent Declination
Unknown
Sunlit
N/A
Visualization observer readout
Local Sidereal Time
02:48:42
Azimuth
Unknown
Elevation
Unknown
Doppler factor
Unknown
Orbital elements
Apogee altitude
156.724 km
Perigee altitude
149.045 km
Semi-major axis
6,531.022 km
Eccentricity
0.00059
Inclination
53.0196°
RAAN
222.4537°
Arg. of periapsis
273.695°
True anomaly
197.32583°
Mean anomaly
197.3459°
Eccentric anomaly
197.33586°
Mean motion
4.11217 °/min
Orbital period
87.54 mins
BSTAR
0.0004988
Loading maneuver chart data...
Computing Atmospheric mass density...

Documentation

Showing up to 5 results
|